Volver al catálogo

STARLINK-2227

ActivoComunicacionesVLEO
NORAD 48575·PAYLOAD·🇺🇸 United States

Lanzado May 15, 2021 desde Cape Canaveral Space Force Station

Loading…

Próximos Pases (próximas 24 horas)

TLE

ActualizadoSource: CelesTrak SupGP

Época: Sep 14, 2026, 21:52 UTC

1 48575C 21041Y   26257.91159722  .00054270  00000+0  16379-2 0  2577
2 48575  53.1570 287.3988 0003648  46.4768 317.2026 15.33686936    15

Sigue STARLINK-2227 en tiempo real con AllMySat

Download on the App Store